Regional Weather Roundup
Issued by NWS

Home | Current Version | Previous Version | Text Only | Print | Product List | Glossary On
Versions: 1 2 3 4 5 6 7 8 9 10 11 12 13 14 15 16 17 18 19 20 21 22 23 24 25 26 27 28 29 30 31 32 33 34 35 36 37 38 39 40 41 42 43 44 45 46 47 48 49 50
000
ASUS46 KPQR 300510
RWROR

OREGON REGIONAL WEATHER ROUNDUP
NATIONAL WEATHER SERVICE PORTLAND OR
1000 PM PDT TUE JUL 29 2014

NOTE: "FAIR" INDICATES FEW OR NO CLOUDS BELOW 12,000 FEET WITH
NO SIGNIFICANT WEATHER AND/OR OBSTRUCTIONS TO VISIBILITY.

ORZ001>013-300600-
NORTHWEST OREGON


CITY           SKY/WX    TMP DP  RH WIND       PRES   REMARKS
ASTORIA        CLOUDY    61  57  87 NW9       30.16R
NEWPORT        CLOUDY    54  54 100 N12G20    30.16S FOG
PORTLAND       PTCLDY    74  56  53 NW8       30.07R
VANCOUVER WA   CLEAR     73  54  51 NW8       30.06R
SCAPPOOSE      CLEAR     71  54  54 N10       30.07R
HILLSBORO      CLEAR     69  52  54 NW9       30.07R
AURORA         CLEAR     74  52  46 N10       30.07R
MCMINNVILLE    CLEAR     68  57  68 W7        30.07R
SALEM          CLEAR     73  55  53 W5        30.06R
CORVALLIS      CLEAR     66  55  68 NW18      30.07R
EUGENE         CLEAR     73  58  59 SW3       30.06R
$$

ORZ021-028-300600-
SOUTHWEST OREGON


CITY           SKY/WX    TMP DP  RH WIND       PRES   REMARKS
NORTH BEND     CLOUDY    57  57 100 N15       30.16R
BROOKINGS      CLOUDY    55  54  94 CALM      30.09R FOG
ROSEBURG       CLEAR     79  55  43 N6        30.05R
SEXTON SUMMIT  CLEAR     68  55  63 N10       30.19R
MEDFORD        PTCLDY    88  50  27 NW7       30.02R
$$

ORZ009-041-300600-
COLUMBIA GORGE


CITY           SKY/WX    TMP DP  RH WIND       PRES   REMARKS
TROUTDALE      CLEAR     74  56  53 W6        30.05R
THE DALLES     MOCLDY    83  59  44 NW12G24   29.95R
$$

ORZ029>031-042>050-061>064-300600-
EASTERN OREGON


CITY           SKY/WX    TMP DP  RH WIND       PRES   REMARKS
REDMOND        CLOUDY    72  43  35 S5        30.15R
BEND             N/A     73  46  38 CALM      30.19
KLAMATH FALLS  MOCLDY    73  47  39 CALM      30.21R
LAKEVIEW       MOCLDY    73  43  33 E18G24    30.27R
HERMISTON      PTCLDY    90  46  21 SW13      29.90R
PENDLETON      MOCLDY    86  43  22 S7        29.97R
JOHN DAY       CLOUDY    76  46  34 E3        30.19S
MEACHAM        MOCLDY    65  51  60 CALM      30.16R
LA GRANDE      PTCLDY    79  39  24 N7        30.06R
BAKER CITY     PTCLDY    71  44  37 SW3       30.11R
BURNS          CLOUDY    71  50  47 W8        30.21R
ROME             N/A     74  46  36 S9        30.18R
ONTARIO        PTCLDY    79  46  31 W7        30.01R
$$


USA.gov is the U.S. government's official web portal to all federal, state and local government web resources and services.